Regional Weather Roundup
Issued by NWS

Home | Current Version | Previous Version | Text Only | Print | Product List | Glossary Off
Versions: 1 2 3 4 5 6 7 8 9 10 11 12 13 14 15 16 17 18 19 20 21 22 23 24 25 26 27 28 29 30 31 32 33 34 35 36 37 38 39 40 41 42 43 44 45 46 47 48 49 50

000
ASUS44 KMEG 061000
RWRTN
TENNESSEE HOURLY STATE WEATHER ROUNDUP
NATIONAL WEATHER SERVICE MEMPHIS TN
500 AM CDT FRI MAY 06 2016

TNZ002-004-019-021-049-052-054-088>092-061100-
WEST TENNESSEE

CITY           SKY/WX    TMP DP  RH WIND       PRES   REMARKS
MEMPHIS INTL   PTCLDY    51  44  77 CALM      30.06R
NWS MEMPHIS      N/A     46 N/A N/A MISG        N/A
JACKSON        CLEAR     43  41  93 SW3       30.03R
DYERSBURG      CLEAR     46  45  93 W5        30.04R
UNION CITY     CLEAR     45  45 100 CALM      30.02R
LEXINGTON      CLEAR     39  39 100 CALM      30.00R
$$

TNZ008-025-027-028-033-062-065-066-061100-
NORTH MIDDLE TENNESSEE

CITY           SKY/WX    TMP DP  RH WIND       PRES   REMARKS
NASHVILLE      CLEAR     48  43  82 W5        29.98R
CLARKSVILLE    CLEAR     45  42  89 NW5       29.99S
COOKEVILLE       N/A     37  37 100 CALM      29.94R VSB 1/2
CROSSVILLE     CLEAR     45  42  89 NW6       29.93R
$$

TNZ061-075-076-078-094-096-097-061100-
SOUTH MIDDLE TENNESSEE

CITY           SKY/WX    TMP DP  RH WIND       PRES   REMARKS
TULLAHOMA      CLEAR     43  41  93 W3        29.97R
WINCHESTER     CLEAR     39  37  93 CALM      29.97R
MCMINNVILLE    CLEAR     41  41 100 CALM      29.96R
COLUMBIA       CLEAR    N/A N/A N/A CALM      29.98R
SHELBYVILLE    CLEAR     41  39  93 CALM      29.99R
$$

TNZ017-018-042-046-047-061100-
NORTHEAST TENNESSEE

CITY           SKY/WX    TMP DP  RH WIND       PRES   REMARKS
TRI CITIES     CLOUDY    49  43  80 W8        29.84R
$$

TNZ012-013-036-069-073-074-061100-
CENTRAL EAST TENNESSEE

CITY           SKY/WX    TMP DP  RH WIND       PRES   REMARKS
KNOXVILLE      PTCLDY    46  43  89 SW6       29.90S
OAK RIDGE      CLEAR     44  41  89 VRB3      29.92R
GATLINBURG     MOSUNNY   45  43  93 CALM      29.90R
$$

TNZ083-085-099-061100-
SOUTHEAST TENNESSEE

CITY           SKY/WX    TMP DP  RH WIND       PRES   REMARKS
CHATTANOOGA    CLEAR     44  41  89 CALM      29.93R
$$

SKY/WX REPORTED AS FAIR MEANS FEW OR NO CLOUDS BELOW
12 THOUSAND FEET.





USA.gov is the U.S. government's official web portal to all federal, state and local government web resources and services.